Location: Catenanuova
(37.5690°N, 14.6870°E)
Time: 21:49:36
(UTC+02:00)

BlueWalker 3 - Pass Details

Date: 22 May 2025
Orbit: 460 x 472 km, 53.2° (Epoch: 16 June)

Event Time Altitude Azimuth Distance (km) Brightness Sun altitude
Rises 23:08:29 0° 304° (NW) 2,492 6.4 -26.4°
Reaches altitude 10° 23:10:45 10° 295° (WNW) 1,615 5.2 -26.6°
Enters shadow 23:12:11 20° 281° (W) 1,127 4.1 -26.8°
